CAPE
0 0 0 0 0 0 0 0 0 0 0 0 0 0 0 0 1 306 325 362 220 101 174 339 904 986 868 804 826 758 298 46 19 4 4 3 3 6 0 49 530 339 29 19 14 16 5 1 0
0 0 0 0 0 0 0 0 0 0 0 0 0 0 0 0 85 427 635 596 254 271 275 269 791 1200 875 752 914 774 332 50 1 0 0 0 2 7 4 156 356 104 23 15 14 9 2 0 0
0 0 0 0 0 0 0 0 0 0 0 0 0 0 0 0 261 565 616 616 563 458 442 449 975 1213 941 752 826 817 489 227 38 0 0 0 1 6 5 134 81 27 12 14 8 4 2 0 0
0 0 0 0 0 0 0 0 0 0 0 0 0 0 0 0 291 599 556 603 453 543 686 604 1187 1308 1188 909 991 922 480 184 18 2 0 0 0 3 7 20 13 5 10 6 8 6 4 1 0
0 0 0 0 0 0 0 0 0 0 0 0 0 0 0 12 106 584 543 573 417 533 698 794 1052 1224 1329 1252 1129 991 619 383 111 2 0 0 0 1 8 12 7 5 4 6 4 4 1 0 0
0 0 0 0 0 0 0 0 0 0 0 0 0 0 0 0 115 474 530 492 477 671 542 700 816 867 1043 1200 1072 902 722 641 289 29 0 0 0 0 1 2 0 0 0 1 3 4 1 0 0
0 0 0 0 0 0 0 0 0 0 0 0 0 0 0 0 66 387 446 393 419 535 433 387 567 666 817 786 636 703 722 607 360 171 30 0 0 0 0 0 0 0 0 0 2 3 0 0 0
0 0 0 0 0 0 0 0 0 0 0 0 0 0 0 0 17 276 312 358 441 427 565 420 491 470 570 365 457 414 444 368 278 79 0 0 0 0 0 0 0 0 0 0 3 2 0 0 0
0 0 0 0 0 0 0 0 0 0 0 0 0 0 0 0 146 209 206 246 304 337 500 489 501 342 252 353 252 216 277 220 83 0 0 0 0 0 0 0 0 0 0 0 1 0 0 0 0
0 0 0 0 0 0 0 0 0 0 0 0 0 0 0 0 150 353 375 187 203 271 375 415 388 339 290 256 133 291 208 93 27 0 0 0 0 0 0 0 0 0 0 0 0 0 0 0 0
0 0 0 0 0 0 0 0 0 0 0 0 0 0 0 0 19 250 266 225 252 457 334 357 364 313 300 274 277 258 259 199 72 1 0 6 0 0 0 0 0 0 0 0 0 0 0 0 0
0 0 0 0 0 0 0 0 0 0 0 0 0 0 0 0 0 32 241 246 329 303 271 343 512 445 320 247 363 313 323 217 177 14 0 20 0 0 0 0 0 0 0 0 0 0 0 0 0
0 0 0 0 0 0 0 0 0 0 0 0 0 0 0 0 0 0 0 59 74 304 257 259 351 295 356 261 323 257 310 233 238 145 3 70 0 0 0 0 0 0 0 0 0 0 0 0 0
0 0 0 0 0 0 0 0 0 0 0 0 0 0 0 0 0 0 0 7 33 70 246 182 217 326 378 428 223 124 277 314 207 169 154 78 0 0 0 0 0 0 0 0 0 0 0 0 0
0 0 0 0 0 0 0 0 0 0 0 0 0 0 0 0 0 0 0 0 1 28 56 97 10 0 155 113 79 6 0 22 245 234 132 68 1 0 0 0 0 0 0 0 0 0 0 0 0
0 0 0 0 0 0 0 0 0 0 0 0 0 0 0 0 0 0 0 0 0 1 53 91 14 0 0 0 1 16 4 0 0 6 155 96 38 0 0 0 0 0 0 0 0 0 0 0 0
0 0 0 0 0 0 0 0 0 0 0 0 0 0 0 0 0 0 0 0 0 0 24 15 2 0 0 0 0 0 0 0 0 0 2 94 38 0 0 0 0 0 0 0 0 0 0 0 0
0 0 0 0 0 0 0 0 0 0 0 0 0 0 0 0 0 0 0 0 0 0 0 0 0 0 0 0 0 0 0 0 0 0 5 22 15 0 0 0 0 0 0 0 0 0 0 0 0
0 0 0 0 0 0 0 0 0 0 0 0 0 0 0 0 0 0 0 0 0 0 0 0 0 0 0 0 0 0 0 0 0 1 0 1 16 3 0 0 0 0 0 0 0 0 0 0 0
0 0 0 0 0 0 0 0 0 0 0 0 0 0 0 0 0 0 0 0 0 0 0 0 0 0 0 0 0 0 0 0 0 0 0 0 1 0 0 0 0 0 0 0 0 0 0 0 0
0 0 0 0 0 0 0 0 0 0 0 0 0 0 0 0 0 0 0 0 0 0 0 0 0 0 0 0 0 0 0 0 0 0 0 0 0 0 0 0 0 0 0 0 0 0 0 0 0
0 0 0 0 0 0 0 0 0 0 0 0 0 0 0 0 0 0 0 0 0 0 0 0 0 0 0 0 0 0 0 0 0 0 0 0 0 0 0 0 0 0 0 0 0 0 0 0 0
0 0 0 0 0 0 0 0 0 0 0 0 0 0 0 0 0 0 0 0 0 0 0 0 0 0 0 0 0 0 0 0 0 0 0 0 0 0 0 0 0 0 0 0 0 0 0 0 0
0 0 0 0 0 0 0 0 0 0 0 0 0 0 0 0 0 0 0 0 0 0 0 0 0 0 0 0 0 0 0 0 0 0 0 0 0 0 0 0 0 0 0 0 0 0 0 0 0
0 0 0 0 0 0 0 0 0 0 0 0 0 0 0 0 0 0 0 0 0 0 0 0 0 0 0 0 0 0 0 0 0 0 0 0 0 0 0 0 0 0 0 0 0 0 0 0 0
0 0 0 0 0 0 0 0 0 0 0 0 0 0 0 0 0 0 0 0 0 0 0 0 0 0 0 0 0 0 0 0 0 0 0 0 0 0 0 0 0 0 0 0 0 0 0 0 0
0 0 0 0 0 0 0 0 0 0 0 0 0 0 0 0 0 0 0 0 0 0 0 0 0 0 0 0 0 0 0 0 0 0 0 0 0 0 0 0 0 0 0 0 0 0 0 0 0
0 0 0 0 0 0 0 0 0 0 0 0 0 0 0 0 0 0 0 0 0 0 0 0 0 0 0 0 0 0 0 0 0 0 0 0 0 0 0 0 0 0 0 0 0 0 0 0 0
0 0 0 0 0 0 0 0 0 0 0 0 0 0 0 0 0 0 0 0 0 0 0 0 0 0 0 0 0 0 0 0 0 0 0 0 0 0 0 0 0 0 0 0 0 0 0 0 0
0 0 0 0 0 0 0 0 0 0 0 0 0 0 0 0 0 0 0 0 0 0 0 0 0 0 0 0 0 0 0 0 0 0 0 0 0 0 0 0 0 0 0 0 0 0 0 0 0
CIN
0 0 0 0 0 0 0 0 0 0 0 0 0 0 0 0 -2 -48 -80 -46 -61 -113 -64 -52 -4 -1 -1 -1 0 0 -7 -85 -73 -35 0 0 0 0 0 -33 0 -1 -74 0 0 0 0 0 0
0 0 0 0 0 0 0 0 0 0 0 0 0 0 0 0 -143 -77 -14 -8 -55 -59 -62 -72 -9 0 -2 -2 0 0 -2 -60 0 0 0 0 0 0 0 -15 0 -38 0 0 0 0 0 0 0
0 0 0 0 0 0 0 0 0 0 0 0 0 0 0 0 -121 -45 -20 -10 -8 -16 -30 -35 -7 -1 -2 -4 0 -1 0 -1 -64 0 0 0 0 0 0 -20 -49 -3 0 0 0 0 0 0 0
0 0 0 0 0 0 0 0 0 0 0 0 0 0 0 0 -122 -66 -51 -11 -18 -13 -15 -57 -5 -1 -1 -2 0 0 0 -8 -24 0 0 0 0 0 0 -2 0 0 0 0 0 0 0 0 0
0 0 0 0 0 0 0 0 0 0 0 0 0 0 0 -204 -258 -92 -62 -25 -40 -18 -53 -37 -9 -2 0 0 0 0 0 -2 -19 0 0 0 0 0 0 0 0 0 0 0 0 0 0 0 0
0 0 0 0 0 0 0 0 0 0 0 0 0 0 0 0 -295 -135 -82 -49 -38 -35 -49 -31 -8 -5 -4 -1 0 0 0 0 -1 -47 0 0 0 0 0 0 0 0 0 0 0 0 0 0 0
0 0 0 0 0 0 0 0 0 0 0 0 0 0 0 0 -367 -171 -123 -96 -73 -61 -72 -67 -17 -9 -7 -5 -4 -3 0 0 0 -2 -90 0 0 0 0 0 0 0 0 0 0 0 0 0 0
0 0 0 0 0 0 0 0 0 0 0 0 0 0 0 0 -60 -229 -176 -117 -94 -116 -68 -67 -13 -18 -10 -34 -13 -12 -5 -11 -2 -56 0 0 0 0 0 0 0 0 0 0 0 0 0 0 0
0 0 0 0 0 0 0 0 0 0 0 0 0 0 0 0 -324 -264 -233 -176 -139 -150 -99 -81 -60 -73 -85 -24 -35 -37 -11 -27 -60 0 0 0 0 0 0 0 0 0 0 0 0 0 0 0 0
0 0 0 0 0 0 0 0 0 0 0 0 0 0 0 0 -352 -257 -209 -243 -197 -177 -130 -94 -88 -84 -77 -68 -122 -21 -42 -97 -108 0 0 0 0 0 0 0 0 0 0 0 0 0 0 0 0
0 0 0 0 0 0 0 0 0 0 0 0 0 0 0 0 -116 -332 -299 -277 -237 -135 -151 -119 -98 -98 -86 -71 -59 -43 -32 -44 -93 -19 0 -14 0 0 0 0 0 0 0 0 0 0 0 0 0
0 0 0 0 0 0 0 0 0 0 0 0 0 0 0 0 0 -500 -362 -327 -255 -239 -223 -157 -72 -65 -84 -101 -50 -53 -45 -54 -67 -152 0 -11 0 0 0 0 0 0 0 0 0 0 0 0 0
0 0 0 0 0 0 0 0 0 0 0 0 0 0 0 0 0 0 0 -494 -451 -297 -292 -237 -152 -144 -80 -106 -85 -86 -66 -72 -56 -91 -82 -139 0 0 0 0 0 0 0 0 0 0 0 0 0
0 0 0 0 0 0 0 0 0 0 0 0 0 0 0 0 0 0 0 -558 -526 -461 -343 -352 -275 -179 -117 -118 -152 -191 -95 -71 -84 -91 -78 -126 0 0 0 0 0 0 0 0 0 0 0 0 0
0 0 0 0 0 0 0 0 0 0 0 0 0 0 0 0 0 0 0 0 -153 -536 -485 -479 -580 -20 -269 -281 -289 -133 0 -244 -67 -61 -85 -111 -121 0 0 0 0 0 0 0 0 0 0 0 0
0 0 0 0 0 0 0 0 0 0 0 0 0 0 0 0 0 0 0 0 0 -226 -506 -516 -596 0 0 0 -121 -370 -382 0 0 -117 -86 -97 -164 0 0 0 0 0 0 0 0 0 0 0 0
0 0 0 0 0 0 0 0 0 0 0 0 0 0 0 0 0 0 0 0 0 0 -575 -602 -265 0 0 0 0 0 0 0 0 0 -134 -101 -163 0 0 0 0 0 0 0 0 0 0 0 0
0 0 0 0 0 0 0 0 0 0 0 0 0 0 0 0 0 0 0 0 0 0 0 0 0 0 0 0 0 0 0 0 0 0 -20 -199 -74 0 0 0 0 0 0 0 0 0 0 0 0
0 0 0 0 0 0 0 0 0 0 0 0 0 0 0 0 0 0 0 0 0 0 0 0 0 0 0 0 0 0 0 0 0 -9 -44 -32 -48 -35 0 0 0 0 0 0 0 0 0 0 0
0 0 0 0 0 0 0 0 0 0 0 0 0 0 0 0 0 0 0 0 0 0 0 0 0 0 0 0 0 0 0 0 0 0 0 0 -65 -12 0 0 0 0 0 0 0 0 0 0 0
0 0 0 0 0 0 0 0 0 0 0 0 0 0 0 0 0 0 0 0 0 0 0 0 0 0 0 0 0 0 0 0 0 0 0 0 0 0 0 0 0 0 0 0 0 0 0 0 0
0 0 0 0 0 0 0 0 0 0 0 0 0 0 0 0 0 0 0 0 0 0 0 0 0 0 0 0 0 0 0 0 0 0 0 0 0 0 0 0 0 0 0 0 0 0 0 0 0
0 0 0 0 0 0 0 0 0 0 0 0 0 0 0 0 0 0 0 0 0 0 0 0 0 0 0 0 0 0 0 0 0 0 0 0 0 0 0 0 0 0 0 0 0 0 0 0 0
0 0 0 0 0 0 0 0 0 0 0 0 0 0 0 0 0 0 0 0 0 0 0 0 0 0 0 0 0 0 0 0 0 0 0 0 0 0 0 0 0 0 0 0 0 0 0 0 0
0 0 0 0 0 0 0 0 0 0 0 0 0 0 0 0 0 0 0 0 0 0 0 0 0 0 0 0 0 0 0 0 0 0 0 0 0 0 0 0 0 0 0 0 0 0 0 0 0
0 0 0 0 0 0 0 0 0 0 0 0 0 0 0 0 0 0 0 0 0 0 0 0 0 0 0 0 0 0 0 0 0 0 0 0 0 0 0 0 0 0 0 0 0 0 0 0 0
0 0 0 0 0 0 0 0 0 0 0 0 0 0 0 0 0 0 0 0 0 0 0 0 0 0 0 0 0 0 0 0 0 0 0 0 0 0 0 0 0 0 0 0 0 0 0 0 0
0 0 0 0 0 0 0 0 0 0 0 0 0 0 0 0 0 0 0 0 0 0 0 0 0 0 0 0 0 0 0 0 0 0 0 0 0 0 0 0 0 0 0 0 0 0 0 0 0
0 0 0 0 0 0 0 0 0 0 0 0 0 0 0 0 0 0 0 0 0 0 0 0 0 0 0 0 0 0 0 0 0 0 0 0 0 0 0 0 0 0 0 0 0 0 0 0 0
0 0 0 0 0 0 0 0 0 0 0 0 0 0 0 0 0 0 0 0 0 0 0 0 0 0 0 0 0 0 0 0 0 0 0 0 0 0 0 0 0 0 0 0 0 0 0 0 0
Wind_Speed
10 8 4 3 2 3 4 5 8 7 4 3 8 5 5 8 6 4 13 11 15 14 12 9 6 8 10 11 12 12 12 13 13 14 13 14 15 14 13 13 16 19 19 19 18 18 18 18 17
7 7 2 4 3 2 4 9 5 8 8 8 5 2 1 5 7 9 6 13 15 15 12 10 10 10 11 12 12 13 13 13 14 14 14 14 14 15 14 15 16 19 19 18 17 17 18 18 16
9 4 2 3 3 5 5 3 10 9 6 3 4 2 5 4 10 10 10 13 14 10 13 12 11 11 11 12 13 14 13 13 14 14 13 14 15 15 14 17 18 17 17 17 17 17 18 17 15
3 2 4 2 3 7 7 5 12 8 4 4 4 8 5 7 10 9 9 12 11 11 12 14 13 12 13 13 14 14 14 14 14 14 14 14 15 15 14 16 17 17 17 16 17 17 17 15 13
2 4 4 4 4 5 5 8 9 6 8 7 2 4 5 4 8 11 9 9 12 11 12 11 12 12 13 13 14 14 14 13 14 14 14 15 15 16 15 16 17 16 16 16 17 17 16 14 13
3 2 4 4 7 7 4 5 6 6 6 6 2 4 5 9 6 8 8 8 12 14 12 11 9 10 11 12 13 12 14 14 13 14 14 15 15 16 16 17 17 17 17 17 17 17 16 14 15
2 3 8 6 4 4 6 5 3 5 8 6 3 1 5 9 9 6 8 8 9 13 12 9 8 9 9 10 10 11 13 13 13 13 13 13 14 14 15 15 16 17 17 17 17 17 16 15 17
2 2 9 3 3 2 6 6 1 4 4 2 3 3 6 10 9 9 7 7 9 10 10 11 8 8 7 6 9 10 11 11 12 12 12 11 12 12 12 12 15 17 17 17 18 17 16 15 15
1 2 6 7 4 1 8 5 2 3 5 1 5 3 3 12 10 7 7 7 6 8 10 6 10 9 7 7 7 8 11 11 11 11 12 10 5 7 7 9 13 16 17 18 17 17 15 12 11
3 3 7 7 7 5 7 6 9 3 6 5 6 6 3 11 9 6 5 7 7 9 10 9 8 9 10 9 9 6 7 6 8 7 8 6 7 6 8 8 11 13 14 17 17 16 12 7 4
5 3 6 6 7 8 2 4 1 6 5 8 10 13 9 8 9 11 8 6 6 4 5 9 11 8 9 6 7 5 5 5 6 10 7 5 7 7 6 4 4 4 6 4 6 5 2 7 5
2 2 3 4 4 2 3 3 4 7 4 4 6 14 13 12 12 14 14 11 11 9 8 5 3 4 9 7 7 6 7 6 6 8 10 5 5 7 6 5 5 4 3 4 4 4 6 7 6
4 2 3 6 2 4 5 5 5 7 11 5 5 8 12 11 11 10 12 12 9 15 15 12 7 6 5 6 5 5 7 6 6 7 9 6 7 6 8 6 6 4 4 4 5 5 5 5 6
6 5 3 4 4 2 2 5 2 7 10 7 9 8 8 11 12 9 9 15 15 12 17 14 12 12 12 7 6 4 4 6 7 7 9 7 8 6 7 8 7 5 5 4 6 5 4 4 5
1 1 4 6 6 1 2 7 11 11 3 6 7 10 10 10 11 12 12 10 14 10 10 16 15 12 8 10 10 7 5 4 5 5 9 10 9 9 9 6 7 6 4 6 6 6 6 4 5
3 1 2 0 8 3 2 7 7 1 10 9 9 8 10 12 11 10 10 10 9 9 10 14 14 15 12 7 6 6 6 6 5 5 6 9 11 12 10 9 8 8 6 5 5 7 5 4 4
4 4 7 4 7 3 6 7 3 3 2 5 9 9 10 10 11 11 11 10 11 10 10 10 15 15 16 10 5 5 6 4 6 5 6 8 10 13 10 9 8 10 7 7 7 4 7 6 4
3 4 5 2 5 2 5 11 15 7 8 10 10 9 9 10 11 10 12 11 10 10 10 10 10 12 10 8 5 4 4 4 4 5 5 7 8 13 11 9 10 10 9 8 7 9 5 5 6
4 7 6 4 3 1 8 12 12 10 8 9 10 10 11 12 9 11 11 12 11 10 10 13 11 11 9 7 7 5 7 4 4 7 4 8 7 12 13 10 12 11 11 11 13 8 10 5 6
1 6 7 6 6 1 8 14 11 11 11 11 11 11 11 9 10 9 11 11 13 12 10 9 12 13 12 10 8 5 4 4 3 4 5 5 10 12 11 12 13 14 10 12 11 12 8 1 10
4 6 7 5 3 7 4 11 7 10 12 11 12 13 10 10 9 9 10 12 11 12 11 11 12 13 12 10 5 3 3 1 3 5 7 5 4 7 11 13 12 14 12 13 15 15 13 10 10
5 4 6 4 4 4 3 8 4 10 8 9 10 9 10 10 9 8 6 7 11 13 9 10 9 9 10 10 9 10 9 7 5 4 4 6 5 6 7 12 13 13 11 13 14 13 11 9 13
2 3 3 3 3 5 5 3 9 7 7 7 10 9 7 5 7 7 8 7 9 9 9 8 9 10 10 12 10 9 8 5 3 4 7 7 7 9 9 11 12 13 11 13 15 14 12 10 10
7 4 3 2 2 6 10 10 5 6 6 3 3 4 7 6 6 5 5 5 3 7 8 8 9 7 8 9 11 10 10 7 6 6 7 7 7 9 8 8 11 12 12 13 12 14 16 13 10
2 4 1 3 0 9 3 5 11 8 10 5 6 5 3 6 4 2 5 4 4 5 6 6 7 8 8 9 9 9 8 10 10 9 9 10 8 7 11 12 11 10 12 12 13 13 13 11 11
10 8 7 7 5 4 6 9 7 9 3 3 5 5 1 5 5 7 7 6 7 6 5 5 6 6 8 8 9 8 9 7 7 7 7 8 8 9 10 11 10 10 11 10 11 9 10 11 9
6 8 2 4 2 4 6 7 7 6 7 7 7 6 8 7 6 6 5 5 7 6 6 7 6 5 6 7 7 7 7 8 7 8 7 6 7 7 10 12 12 11 11 12 12 10 12 11 10
3 1 3 2 3 5 7 8 9 2 8 10 3 3 5 5 5 4 4 5 3 5 5 7 7 8 7 7 7 6 7 7 8 7 8 8 7 9 11 12 12 12 11 12 12 8 10 11 9
3 4 3 3 5 6 6 8 3 2 6 8 6 6 3 2 2 3 3 3 3 3 5 6 7 8 8 8 7 7 7 7 7 7 7 7 6 7 9 11 12 12 11 10 10 9 10 12 10
2 6 7 5 3 3 3 17 2 7 8 8 4 3 4 5 4 2 2 5 4 5 6 7 7 7 8 8 8 8 7 7 7 7 7 6 7 5 7 7 8 8 9 10 12 11 11 13 12
Wind_Direction
293 248 272 307 293 207 107 89 95 96 102 62 39 27 47 35 16 102 147 166 140 139 148 160 166 159 156 142 136 117 108 101 98 95 95 93 92 93 89 80 88 88 88 85 83 82 83 83 84
299 313 265 266 242 285 78 107 120 93 89 88 104 259 220 84 76 124 122 130 136 143 143 158 164 151 154 141 131 116 110 107 103 100 97 96 96 94 92 85 88 91 91 86 85 86 86 84 87
259 280 285 225 284 55 86 92 107 86 96 138 122 349 358 76 106 148 129 130 135 131 144 136 146 146 149 138 131 121 117 112 106 102 101 99 99 97 95 89 90 89 88 90 90 88 87 86 83
310 224 271 272 8 69 49 80 104 112 96 355 355 107 78 295 146 112 150 139 132 139 118 135 142 144 143 142 137 127 124 118 114 113 110 108 106 103 99 94 90 89 91 90 90 88 84 82 70
223 263 263 230 82 88 84 59 117 156 139 147 202 113 83 62 71 120 158 145 133 125 124 133 141 146 145 145 141 137 131 123 119 118 115 111 109 106 102 98 95 96 95 95 92 89 85 78 58
290 227 282 239 109 104 99 117 145 151 110 76 150 138 118 126 141 149 156 164 142 128 133 134 141 143 149 144 144 144 136 128 128 124 120 117 115 114 111 107 107 104 103 101 96 91 87 79 62
259 312 279 342 51 133 123 141 178 157 141 165 23 346 113 143 163 171 163 173 134 124 131 139 149 150 143 144 148 148 141 135 134 126 119 116 115 113 111 112 113 112 110 105 102 97 93 82 62
347 285 283 265 314 84 108 154 313 180 99 85 48 354 155 167 151 160 176 169 138 135 138 152 153 153 151 146 147 153 143 142 135 118 113 107 103 104 106 109 116 115 113 110 105 98 92 74 59
266 326 277 259 127 108 120 159 316 18 107 81 142 57 355 133 134 158 178 163 155 139 141 153 158 162 162 154 153 146 150 145 125 124 126 125 128 116 111 107 115 118 118 114 110 106 95 74 59
192 165 267 7 27 12 144 208 146 155 187 186 139 85 93 126 145 151 217 174 171 155 151 165 175 175 172 166 147 161 158 157 151 148 164 149 141 139 105 101 105 112 116 118 119 121 118 89 55
213 213 23 61 38 2 162 216 154 167 253 189 192 160 170 157 170 168 217 195 204 170 167 182 176 181 163 159 160 174 162 168 167 161 187 167 121 124 119 114 104 106 107 121 121 131 99 78 71
296 213 15 34 47 331 320 326 214 212 221 87 37 151 158 173 188 181 190 202 178 189 213 212 176 180 164 165 175 179 171 174 178 174 183 160 139 143 145 142 141 152 142 158 109 81 85 79 74
233 114 56 66 90 290 15 279 257 260 231 156 87 98 167 181 197 199 186 193 199 187 194 191 183 203 199 193 171 190 179 176 173 167 188 166 153 162 157 146 154 155 149 139 114 115 104 99 91
357 36 201 142 216 192 288 279 168 249 238 242 156 185 199 186 198 195 199 192 200 195 188 178 190 193 208 170 176 203 189 179 178 175 185 168 165 169 158 154 152 148 154 142 138 129 120 111 104
44 259 202 212 212 236 220 281 239 216 178 243 225 187 202 208 197 202 201 204 194 196 181 178 180 205 215 180 190 193 187 198 181 182 172 178 171 160 153 156 156 154 158 142 133 126 118 110 110
224 178 238 145 141 165 171 272 299 162 182 205 246 241 208 217 203 204 200 194 201 186 183 170 179 191 211 211 189 193 189 193 188 190 177 177 176 168 162 164 168 157 150 132 125 136 130 123 129
202 256 214 163 191 138 191 279 73 89 68 260 253 240 234 220 211 197 201 196 192 190 181 182 177 186 199 216 191 204 200 201 196 189 185 177 171 169 166 168 162 153 151 148 145 138 148 138 142
251 222 258 222 189 265 240 257 280 255 204 222 236 251 241 229 224 196 193 193 188 193 185 187 176 179 183 191 190 202 196 208 206 203 205 180 164 171 170 168 158 160 154 152 151 155 155 140 146
25 322 332 56 119 157 240 260 260 261 253 240 234 227 232 241 230 206 192 186 185 188 189 187 176 178 177 183 189 193 198 191 206 209 210 181 171 168 178 169 162 170 167 173 164 157 150 134 131
174 290 284 299 102 131 274 277 265 266 248 232 242 243 242 241 227 221 197 179 180 188 190 183 186 181 188 192 194 190 166 207 192 184 207 239 176 172 181 172 175 175 165 157 178 162 144 130 170
230 238 265 276 358 222 290 279 237 253 252 249 243 248 248 241 239 228 194 184 173 183 186 194 196 188 188 187 165 153 131 220 187 192 209 214 199 167 176 186 177 177 172 175 176 175 176 161 194
254 270 221 319 23 249 35 288 291 297 282 229 244 234 238 239 237 229 218 187 181 190 179 182 184 182 186 181 182 189 195 189 202 174 174 208 194 187 187 191 179 179 177 181 184 180 185 163 180
198 5 119 108 240 318 205 244 268 247 267 251 265 265 250 254 218 206 205 192 187 172 179 177 179 187 184 188 190 185 201 198 159 164 181 204 206 206 202 194 183 181 184 185 182 181 189 192 175
133 97 117 142 192 264 205 209 231 229 237 278 136 103 90 73 49 29 56 43 136 165 173 179 180 190 185 185 197 194 192 182 189 181 181 188 204 204 198 193 186 185 185 181 185 192 193 194 188
256 144 296 306 323 235 324 246 236 291 289 255 275 284 34 142 143 246 203 209 231 174 162 165 175 192 186 186 193 204 202 189 202 192 189 187 197 203 195 192 188 187 185 185 183 188 194 193 204
197 186 171 206 203 266 330 246 263 218 256 283 277 303 283 246 210 223 237 200 183 180 165 171 190 204 193 192 200 201 209 215 220 212 199 201 195 205 193 196 194 189 181 179 184 182 195 195 207
181 220 250 340 16 36 233 274 293 199 235 300 297 313 318 359 22 360 245 155 143 163 184 185 191 212 221 205 203 210 209 206 216 223 196 194 193 189 184 187 188 186 188 183 185 185 190 191 189
181 203 108 259 200 251 264 293 246 341 242 244 214 84 48 34 27 350 79 106 102 147 169 181 190 199 210 212 209 213 216 215 218 213 207 202 193 192 181 186 191 190 187 186 187 187 188 189 197
144 226 217 167 181 181 273 255 267 161 77 99 68 56 48 83 81 79 95 107 148 174 193 196 201 201 203 205 209 211 223 226 221 221 213 204 190 182 176 178 182 181 180 183 186 178 178 186 178
263 221 193 167 230 244 168 267 75 100 111 97 90 325 317 33 45 66 140 176 186 220 234 227 217 215 211 206 202 204 210 220 231 223 212 198 200 184 171 163 164 169 174 178 187 184 187 181 182